| time (UTC) | temp C | wind direction | speed KPH | gust KPH | rain 1hr cm | rain 24hr cm | rain mn cm | humidity % | barometer mb |
| 20260504214557 | 19 | 28 | 0.0 | 0.0 | 0.00 | 0.00 | 0.00 | 37 | 1004.9 |
| 20260504213100 | 19 | 32 | 0.0 | 0.0 | 0.00 | 0.00 | 0.00 | 38 | 1004.9 |
| 20260504211556 | 19 | 66 | 0.0 | 0.0 | 0.00 | 0.00 | 0.00 | 39 | 1004.8 |
| 20260504210053 | 20 | 61 | 0.0 | 1.6 | 0.00 | 0.00 | 0.00 | 37 | 1004.8 |
| 20260504204552 | 19 | 34 | 0.0 | 3.2 | 0.00 | 0.00 | 0.00 | 38 | 1004.8 |
| 20260504203053 | 20 | 321 | 0.0 | 0.0 | 0.00 | 0.00 | 0.00 | 38 | 1004.8 |
| 20260504201552 | 20 | 43 | 0.0 | 1.6 | 0.00 | 0.00 | 0.00 | 37 | 1004.8 |
| 20260504200055 | 20 | 48 | 0.0 | 0.0 | 0.00 | 0.00 | 0.00 | 37 | 1004.9 |
| 20260504194549 | 20 | 51 | 0.0 | 1.6 | 0.00 | 0.00 | 0.00 | 36 | 1005.1 |
| 20260504193047 | 20 | 5 | 0.0 | 1.6 | 0.00 | 0.00 | 0.00 | 37 | 1005.2 |
| 20260504191554 | 20 | 346 | 0.0 | 1.6 | 0.00 | 0.00 | 0.00 | 37 | 1005.1 |
| 20260504190050 | 19 | 304 | 0.0 | 0.0 | 0.00 | 0.00 | 0.00 | 38 | 1005.4 |
| 20260504184552 | 19 | 78 | 0.0 | 0.0 | 0.00 | 0.00 | 0.00 | 39 | 1005.4 |
| 20260504183047 | 18 | 64 | 0.0 | 1.6 | 0.00 | 0.00 | 0.00 | 39 | 1005.5 |
| 20260504181539 | 18 | 53 | 0.0 | 0.0 | 0.00 | 0.00 | 0.00 | 42 | 1005.7 |
| 20260504180033 | 17 | 315 | 0.0 | 0.0 | 0.00 | 0.00 | 0.00 | 44 | 1005.9 |
| 20260504174531 | 17 | 115 | 0.0 | 0.0 | 0.00 | 0.00 | 0.00 | 43 | 1005.8 |
| 20260504173029 | 17 | 293 | 0.0 | 0.0 | 0.00 | 0.00 | 0.00 | 42 | 1005.7 |
| 20260504171528 | 17 | 306 | 0.0 | 1.6 | 0.00 | 0.00 | 0.00 | 42 | 1005.8 |
| 20260504081515 | 2 | 346 | 0.0 | 0.0 | 0.00 | 0.00 | 0.00 | 87 | 1008.9 |
| 20260504044551 | 3 | 346 | 0.0 | 0.0 | 0.00 | 0.00 | 0.00 | 75 | 1008.7 |
| 20260504043042 | 3 | 346 | 0.0 | 0.0 | 0.00 | 0.00 | 0.00 | 71 | 1008.6 |
| 20260504041538 | 3 | 346 | 0.0 | 0.0 | 0.00 | 0.00 | 0.00 | 69 | 1008.5 |
| 20260504040039 | 3 | 346 | 0.0 | 0.0 | 0.00 | 0.00 | 0.00 | 68 | 1008.4 |
| 20260504034508 | 4 | 346 | 0.0 | 0.0 | 0.00 | 0.10 | 0.00 | 69 | 1008.4 |
| 20260504033006 | 4 | 346 | 0.0 | 0.0 | 0.00 | 0.10 | 0.00 | 66 | 1008.2 |
| 20260504031505 | 5 | 346 | 0.0 | 0.0 | 0.00 | 0.10 | 0.00 | 63 | 1008.2 |
| 20260504030011 | 5 | 346 | 0.0 | 0.0 | 0.00 | 0.18 | 0.00 | 64 | 1008.2 |
| 20260504024506 | 5 | 346 | 0.0 | 0.0 | 0.00 | 0.18 | 0.00 | 62 | 1008.2 |
| 20260504023003 | 5 | 346 | 0.0 | 0.0 | 0.00 | 0.18 | 0.00 | 61 | 1008.3 |
| 20260504021502 | 5 | 346 | 0.0 | 0.0 | 0.00 | 0.18 | 0.00 | 60 | 1008.3 |
| 20260504020001 | 6 | 346 | 0.0 | 0.0 | 0.00 | 0.18 | 0.00 | 59 | 1008.2 |
| 20260504014502 | 6 | 346 | 0.0 | 0.0 | 0.00 | 0.18 | 0.00 | 58 | 1008.2 |
| 20260504013001 | 6 | 346 | 0.0 | 0.0 | 0.00 | 0.18 | 0.00 | 58 | 1008.2 |
| 20260504011600 | 6 | 346 | 0.0 | 0.0 | 0.00 | 0.18 | 0.00 | 57 | 1008.1 |
| 20260504010114 | 6 | 346 | 0.0 | 0.0 | 0.00 | 0.18 | 0.00 | 56 | 1007.9 |
| 20260504004626 | 7 | 346 | 0.0 | 0.0 | 0.00 | 0.18 | 0.00 | 56 | 1007.7 |
| 20260504003059 | 7 | 346 | 0.0 | 0.0 | 0.00 | 0.18 | 0.00 | 54 | 1007.5 |
| 20260504001612 | 7 | 346 | 0.0 | 0.0 | 0.00 | 0.18 | 0.00 | 54 | 1007.3 |
| 20260504000058 | 7 | 289 | 0.0 | 0.0 | 0.00 | 0.18 | 0.00 | 52 | 1007.1 |
| 20260503234558 | 8 | 286 | 0.0 | 0.0 | 0.00 | 0.20 | 0.00 | 53 | 1006.9 |
| 20260503233058 | 8 | 69 | 0.0 | 0.0 | 0.00 | 0.20 | 0.00 | 51 | 1006.9 |
| 20260503231558 | 8 | 268 | 0.0 | 0.0 | 0.00 | 0.20 | 0.00 | 50 | 1006.9 |
| 20260503224556 | 8 | 248 | 0.0 | 0.0 | 0.00 | 0.20 | 0.00 | 48 | 1006.8 |
| 20260503223059 | 9 | 99 | 0.0 | 0.0 | 0.00 | 0.20 | 0.00 | 49 | 1006.7 |
| 20260503221555 | 9 | 99 | 0.0 | 0.0 | 0.00 | 0.20 | 0.00 | 49 | 1006.5 |
| 20260503220152 | 9 | 193 | 0.0 | 0.0 | 0.00 | 0.20 | 0.00 | 48 | 1006.4 |